Crescent City, CA

9:56 PM PDT on July 20, 2017 (GMT -0700)
McNamara

Weather History for KCEC - July, 2013

Change the Weather History Date:

Monday, July 8, 2013

  Actual Average Record
Temperature  
Mean Temperature 54 °F 56 °F  
Max Temperature 56 °F 61 °F 81 °F (1985)
Min Temperature 51 °F 51 °F 42 °F (1999)
Degree Days  
Heating Degree Days 14 9  
Month to date heating degree days 72  
Since 1 June heating degree days 381  
Since 1 July heating degree days 72  
Cooling Degree Days 0 0  
Month to date cooling degree days 0  
Year to date cooling degree days 0  
Since 1 June cooling degree days 0  
Growing Degree Days 2 (Base 50)    
Moisture  
Dew Point 52 °F    
Average Humidity 93    
Maximum Humidity 100    
Minimum Humidity 86    
Precipitation  
Precipitation 0.00 in 0.02 in 0.75 in (2016)
Month to date precipitation 0.00 0.20  
Year to date precipitation 19.93 37.13  
Since 1 July precipitation 0.00  
Snow  
Snow 0.00 in - - ()
Month to date snowfall 0.0  
Since 1 June snowfall 0.0  
Since 1 July snowfall 0.0  
Snow Depth -    
Sea Level Pressure  
Sea Level Pressure 29.95 in    
Wind  
Wind Speed 5 mph (South)    
Max Wind Speed 14 mph    
Max Gust Speed -    
Visibility 4 miles    
Events Fog    
T = Trace of Precipitation, MM = Missing Value Source: NWS Daily Summary

Daily Weather History Graph

Daily Weather History Graph

Search for Another Location

Airport or City:

Trip Planner

Search our weather history database for the weather conditions in past years. The results will help you decide how hot, cold, wet, or windy it might be!

Date:

Astronomy

Jul. 08, 2013 Rise Set
Actual Time 5:50 AM PDT 8:53 PM PDT
Civil Twilight 5:16 AM PDT 9:27 PM PDT
Nautical Twilight 4:33 AM PDT 10:09 PM PDT
Astronomical Twilight 3:42 AM PDT 11:00 PM PDT
Moon 6:26 AM PDT (7/8) 8:57 PM PDT (7/8)
Length of Visible Light 16h 10m
Length of Day
15h 03m
New Moon, 0% of the Moon is Illuminated
Jul 8
New Moon
Jul 15
First Quarter
Jul 22
Full
Jul 29
Last Quarter
Aug 6
New

Hourly Weather History & Observations

Time (PDT) Temp. Dew Point Humidity Pressure Visibility Wind Dir Wind Speed Gust Speed Precip Events Conditions
12:10 AM 50.0 °F 50.0 °F 100% 29.92 in 7.0 mi Calm Calm - N/A   Overcast
12:19 AM 50.0 °F 50.0 °F 100% 29.92 in 7.0 mi Calm Calm - N/A   Overcast
12:56 AM 51.1 °F 51.1 °F 100% 29.92 in 6.0 mi SSW 3.5 mph - N/A   Overcast
1:56 AM 52.0 °F 51.1 °F 97% 29.92 in 7.0 mi Calm Calm - N/A   Overcast
2:56 AM 52.0 °F 51.1 °F 97% 29.92 in 6.0 mi Calm Calm - N/A   Overcast
3:56 AM 52.0 °F 52.0 °F 100% 29.92 in 6.0 mi Calm Calm - N/A   Overcast
4:09 AM 51.8 °F 51.8 °F 100% 29.91 in 5.0 mi Calm Calm - N/A   Overcast
4:56 AM 52.0 °F 52.0 °F 100% 29.92 in 3.0 mi Calm Calm - N/A   Overcast
5:07 AM 51.8 °F 51.8 °F 100% 29.91 in 1.8 mi Calm Calm - N/A   Overcast
5:17 AM 51.8 °F 51.8 °F 100% 29.91 in 1.0 mi Calm Calm - N/A   Overcast
5:25 AM 51.8 °F 51.8 °F 100% 29.91 in 0.5 mi Calm Calm - N/A Fog Fog
5:56 AM 51.1 °F 51.1 °F 100% 29.92 in 0.5 mi Calm Calm - N/A Fog Fog
6:56 AM 51.1 °F 51.1 °F 100% 29.93 in 0.5 mi Calm Calm - N/A Fog Fog
7:52 AM 51.8 °F 51.8 °F 100% 29.93 in 1.5 mi Calm Calm - N/A   Overcast
7:56 AM 52.0 °F 52.0 °F 100% 29.94 in 1.0 mi South 4.6 mph - N/A   Overcast
8:03 AM 51.8 °F 51.8 °F 100% 29.93 in 0.5 mi SSW 3.5 mph - N/A Fog Fog
8:56 AM 52.0 °F 52.0 °F 100% 29.94 in 0.5 mi South 4.6 mph - N/A Fog Fog
9:07 AM 51.8 °F 51.8 °F 100% 29.94 in 1.0 mi South 4.6 mph - N/A   Mist
9:17 AM 51.8 °F 51.8 °F 100% 29.94 in 0.8 mi South 5.8 mph - N/A   Mist
9:31 AM 51.8 °F 51.8 °F 100% 29.94 in 1.0 mi South 6.9 mph - N/A   Overcast
9:46 AM 51.8 °F 51.8 °F 100% 29.94 in 0.8 mi South 6.9 mph - N/A   Overcast
9:56 AM 52.0 °F 52.0 °F 100% 29.95 in 0.8 mi SSW 4.6 mph - N/A   Overcast
10:36 AM 51.8 °F 51.8 °F 100% 29.95 in 1.2 mi SSW 5.8 mph - N/A   Overcast
10:42 AM 51.8 °F 51.8 °F 100% 29.95 in 2.0 mi South 4.6 mph - N/A   Overcast
10:56 AM 53.1 °F 53.1 °F 100% 29.96 in 2.0 mi South 5.8 mph - N/A   Overcast
11:05 AM 51.8 °F 51.8 °F 100% 29.96 in 1.2 mi South 6.9 mph - N/A   Overcast
11:10 AM 53.6 °F 51.8 °F 94% 29.96 in 2.0 mi South 5.8 mph - N/A   Overcast
11:22 AM 53.6 °F 51.8 °F 94% 29.96 in 1.2 mi South 6.9 mph - N/A   Overcast
11:46 AM 53.6 °F 51.8 °F 94% 29.96 in 0.8 mi South 8.1 mph - N/A   Overcast
11:56 AM 54.0 °F 52.0 °F 93% 29.97 in 0.8 mi South 9.2 mph - N/A   Overcast
12:11 PM 53.6 °F 51.8 °F 94% 29.96 in 1.5 mi South 10.4 mph - N/A   Overcast
12:20 PM 53.6 °F 51.8 °F 94% 29.96 in 3.0 mi South 11.5 mph - N/A   Overcast
12:45 PM 55.4 °F 51.8 °F 88% 29.97 in 2.5 mi South 11.5 mph - N/A   Overcast
12:53 PM 55.4 °F 51.8 °F 88% 29.97 in 1.2 mi South 12.7 mph - N/A   Overcast
12:56 PM 55.0 °F 52.0 °F 89% 29.97 in 1.5 mi South 13.8 mph - N/A   Overcast
1:02 PM 53.6 °F 51.8 °F 94% 29.97 in 3.0 mi South 12.7 mph - N/A   Overcast
1:56 PM 55.0 °F 52.0 °F 89% 29.97 in 5.0 mi South 13.8 mph - N/A   Overcast
2:08 PM 55.4 °F 51.8 °F 88% 29.97 in 2.5 mi South 12.7 mph - N/A   Overcast
2:34 PM 55.4 °F 51.8 °F 88% 29.97 in 1.5 mi South 10.4 mph - N/A   Overcast
2:41 PM 55.4 °F 51.8 °F 88% 29.97 in 3.0 mi South 11.5 mph - N/A   Overcast
2:52 PM 55.4 °F 53.6 °F 94% 29.98 in 2.5 mi South 10.4 mph - N/A   Overcast
2:56 PM 55.0 °F 52.0 °F 89% 29.98 in 3.0 mi South 11.5 mph - N/A   Overcast
3:06 PM 55.4 °F 51.8 °F 88% 29.98 in 2.5 mi South 10.4 mph - N/A   Overcast
3:27 PM 55.4 °F 53.6 °F 94% 29.98 in 5.0 mi South 10.4 mph - N/A   Overcast
3:56 PM 54.0 °F 52.0 °F 93% 29.98 in 4.0 mi South 6.9 mph - N/A   Overcast
4:23 PM 55.4 °F 53.6 °F 94% 29.97 in 1.8 mi South 6.9 mph - N/A   Overcast
4:37 PM 53.6 °F 53.6 °F 100% 29.97 in 3.0 mi South 5.8 mph - N/A   Overcast
4:56 PM 54.0 °F 52.0 °F 93% 29.98 in 7.0 mi South 6.9 mph - N/A   Overcast
5:56 PM 54.0 °F 52.0 °F 93% 29.97 in 5.0 mi South 4.6 mph - N/A   Overcast
6:56 PM 52.0 °F 51.1 °F 97% 29.97 in 10.0 mi South 3.5 mph - N/A   Mostly Cloudy
7:10 PM 51.8 °F 50.0 °F 94% 29.96 in 10.0 mi SSW 3.5 mph - N/A   Scattered Clouds
7:56 PM 52.0 °F 50.0 °F 93% 29.97 in 10.0 mi South 4.6 mph - N/A   Partly Cloudy
8:56 PM 52.0 °F 48.9 °F 89% 29.97 in 10.0 mi ESE 3.5 mph - N/A   Clear
9:56 PM 51.1 °F 50.0 °F 96% 29.99 in 10.0 mi Calm Calm - N/A   Clear
10:56 PM 48.9 °F 48.0 °F 97% 30.00 in 10.0 mi Calm Calm - N/A   Clear
11:56 PM 52.0 °F 50.0 °F 93% 30.01 in 10.0 mi SE 4.6 mph - N/A   Clear